• In Italy
  • List of Countries
  • For 7 days
  • Water Temperature
  • Satellite Maps
  • Weather Map
  • Weather Widgets
  • user-avatar
    Login

    Hourly Weather Herāt

    Today, 20 September, Thursday

    Time Temperature Precipitation Wind Pressure Humidity
    00:00 +23°C° 0 mm 5 mps 680 mmHg 27%
    01:00 +22°C° 0 mm 5 mps 680 mmHg 27%
    02:00 +22°C° 0 mm 5 mps 680 mmHg 27%
    03:00 +21°C° 0 mm 5 mps 680 mmHg 28%
    04:00 +21°C° 0 mm 6 mps 680 mmHg 31%
    05:00 +21°C° 0 mm 6 mps 680 mmHg 30%
    06:00 +21°C° 0 mm 6 mps 681 mmHg 29%
    07:00 +21°C° 0 mm 7 mps 681 mmHg 27%
    08:00 +23°C° 0 mm 7 mps 681 mmHg 24%
    09:00 +26°C° 0 mm 7 mps 682 mmHg 21%
    10:00 +28°C° 0 mm 8 mps 682 mmHg 18%
    11:00 +28°C° 0 mm 8 mps 682 mmHg 17%
    12:00 +29°C° 0 mm 8 mps 682 mmHg 17%
    13:00 +31°C° 0 mm 9 mps 682 mmHg 16%
    14:00 +31°C° 0 mm 9 mps 681 mmHg 16%
    15:00 +29°C° 0 mm 9 mps 681 mmHg 17%
    16:00 +29°C° 0 mm 9 mps 681 mmHg 18%
    17:00 +28°C° 0 mm 9 mps 681 mmHg 21%
    18:00 +26°C° 0 mm 9 mps 681 mmHg 25%
    19:00 +24°C° 0 mm 9 mps 681 mmHg 29%
    20:00 +23°C° 0 mm 8 mps 681 mmHg 31%
    21:00 +22°C° 0 mm 8 mps 681 mmHg 33%
    22:00 +21°C° 0 mm 8 mps 681 mmHg 35%
    23:00 +21°C° 0 mm 7 mps 681 mmHg 36%

    Tomorrow, 21 September, Friday

    Time Temperature Precipitation Wind Pressure Humidity
    00:00 +20°C° 0 mm 7 mps 681 mmHg 36%
    01:00 +20°C° 0 mm 7 mps 681 mmHg 37%
    02:00 +18°C° 0 mm 7 mps 681 mmHg 37%
    03:00 +18°C° 0 mm 7 mps 681 mmHg 37%
    04:00 +19°C° 0 mm 6 mps 681 mmHg 37%
    05:00 +19°C° 0 mm 6 mps 681 mmHg 36%
    06:00 +18°C° 0 mm 7 mps 682 mmHg 34%
    07:00 +18°C° 0 mm 7 mps 682 mmHg 33%
    08:00 +21°C° 0 mm 7 mps 682 mmHg 29%
    09:00 +23°C° 0 mm 8 mps 682 mmHg 26%
    10:00 +26°C° 0 mm 8 mps 683 mmHg 22%
    11:00 +27°C° 0 mm 8 mps 682 mmHg 21%
    12:00 +28°C° 0 mm 8 mps 682 mmHg 20%
    13:00 +29°C° 0 mm 9 mps 682 mmHg 18%
    14:00 +28°C° 0 mm 9 mps 682 mmHg 19%
    15:00 +28°C° 0 mm 9 mps 681 mmHg 19%
    16:00 +28°C° 0 mm 9 mps 681 mmHg 20%
    17:00 +26°C° 0 mm 9 mps 681 mmHg 22%
    18:00 +24°C° 0 mm 8 mps 681 mmHg 24%
    19:00 +23°C° 0 mm 7 mps 681 mmHg 27%
    20:00 +22°C° 0 mm 7 mps 681 mmHg 28%
    21:00 +21°C° 0 mm 7 mps 681 mmHg 29%
    22:00 +21°C° 0 mm 6 mps 681 mmHg 30%
    23:00 +20°C° 0 mm 6 mps 681 mmHg 31%

    Day after tomorrow, 22 September, Saturday

    Time Temperature Precipitation Wind Pressure Humidity
    00:00 +19°C° 0 mm 5 mps 681 mmHg 32%
    01:00 +19°C° 0 mm 5 mps 681 mmHg 33%
    02:00 +17°C° 0 mm 5 mps 680 mmHg 34%
    03:00 +18°C° 0 mm 4 mps 680 mmHg 35%
    04:00 +18°C° 0 mm 4 mps 680 mmHg 35%
    05:00 +18°C° 0 mm 4 mps 681 mmHg 34%
    06:00 +18°C° 0 mm 4 mps 681 mmHg 33%
    07:00 +19°C° 0 mm 5 mps 681 mmHg 32%
    08:00 +21°C° 0 mm 5 mps 682 mmHg 29%
    09:00 +23°C° 0 mm 6 mps 682 mmHg 25%
    10:00 +26°C° 0 mm 6 mps 682 mmHg 21%
    11:00 +27°C° 0 mm 7 mps 682 mmHg 19%
    12:00 +28°C° 0 mm 7 mps 682 mmHg 18%
    13:00 +29°C° 0 mm 7 mps 682 mmHg 17%
    14:00 +28°C° 0 mm 7 mps 681 mmHg 17%
    15:00 +28°C° 0 mm 8 mps 681 mmHg 18%
    16:00 +28°C° 0 mm 8 mps 681 mmHg 18%
    17:00 +27°C° 0 mm 8 mps 681 mmHg 21%
    18:00 +24°C° 0 mm 7 mps 681 mmHg 24%
    19:00 +23°C° 0 mm 7 mps 681 mmHg 26%
    20:00 +22°C° 0 mm 6 mps 681 mmHg 28%
    21:00 +22°C° 0 mm 6 mps 681 mmHg 29%
    22:00 +21°C° 0 mm 5 mps 682 mmHg 30%
    23:00 +20°C° 0 mm 5 mps 681 mmHg 32%

    23 September, Sunday

    Time Temperature Precipitation Wind Pressure Humidity
    00:00 +20°C° 0 mm 5 mps 681 mmHg 33%
    01:00 +19°C° 0 mm 5 mps 681 mmHg 34%
    02:00 +19°C° 0 mm 4 mps 681 mmHg 36%
    03:00 +18°C° 0 mm 4 mps 681 mmHg 37%
    04:00 +18°C° 0 mm 4 mps 680 mmHg 38%
    05:00 +18°C° 0 mm 4 mps 681 mmHg 37%
    06:00 +19°C° 0 mm 4 mps 681 mmHg 35%
    07:00 +19°C° 0 mm 4 mps 681 mmHg 34%
    08:00 +22°C° 0 mm 5 mps 682 mmHg 29%
    09:00 +25°C° 0 mm 5 mps 682 mmHg 24%
    10:00 +27°C° 0 mm 6 mps 683 mmHg 19%
    11:00 +28°C° 0 mm 6 mps 682 mmHg 18%
    12:00 +29°C° 0 mm 6 mps 682 mmHg 16%
    13:00 +29°C° 0 mm 7 mps 682 mmHg 14%
    14:00 +29°C° 0 mm 7 mps 681 mmHg 14%
    15:00 +29°C° 0 mm 7 mps 681 mmHg 14%
    16:00 +29°C° 0 mm 8 mps 681 mmHg 14%
    17:00 +27°C° 0 mm 7 mps 681 mmHg 16%
    18:00 +26°C° 0 mm 7 mps 681 mmHg 18%
    19:00 +23°C° 0 mm 6 mps 681 mmHg 19%
    20:00 +23°C° 0 mm 5 mps 681 mmHg 20%
    21:00 +22°C° 0 mm 5 mps 681 mmHg 21%
    22:00 +21°C° 0 mm 4 mps 681 mmHg 22%
    23:00 +20°C° 0 mm 4 mps 680 mmHg 23%

    24 September, Monday

    Time Temperature Precipitation Wind Pressure Humidity
    00:00 +20°C° 0 mm 4 mps 680 mmHg 24%
    01:00 +19°C° 0 mm 3 mps 679 mmHg 25%
    02:00 +19°C° 0 mm 3 mps 679 mmHg 26%
    03:00 +18°C° 0 mm 3 mps 679 mmHg 26%
    04:00 +18°C° 0 mm 3 mps 679 mmHg 27%
    05:00 +19°C° 0 mm 3 mps 679 mmHg 26%
    06:00 +19°C° 0 mm 3 mps 679 mmHg 25%
    07:00 +20°C° 0 mm 3 mps 680 mmHg 24%
    08:00 +22°C° 0 mm 3 mps 680 mmHg 21%
    09:00 +25°C° 0 mm 3 mps 680 mmHg 17%
    10:00 +27°C° 0 mm 4 mps 680 mmHg 14%
    11:00 +28°C° 0 mm 4 mps 680 mmHg 13%
    12:00 +29°C° 0 mm 4 mps 680 mmHg 11%
    13:00 +30°C° 0 mm 5 mps 680 mmHg 10%
    14:00 +30°C° 0 mm 5 mps 679 mmHg 10%
    15:00 +30°C° 0 mm 5 mps 679 mmHg 10%
    16:00 +30°C° 0 mm 6 mps 679 mmHg 9%
    17:00 +28°C° 0 mm 5 mps 679 mmHg 11%
    18:00 +27°C° 0 mm 5 mps 679 mmHg 13%
    19:00 +25°C° 0 mm 5 mps 679 mmHg 14%
    20:00 +23°C° 0 mm 4 mps 679 mmHg 16%
    21:00 +23°C° 0 mm 4 mps 679 mmHg 17%
    22:00 +22°C° 0 mm 4 mps 680 mmHg 19%
    23:00 +21°C° 0 mm 3 mps 679 mmHg 20%

    25 September, Tuesday

    Time Temperature Precipitation Wind Pressure Humidity
    00:00 +21°C° 0 mm 3 mps 679 mmHg 21%
    01:00 +20°C° 0 mm 3 mps 679 mmHg 22%
    02:00 +20°C° 0 mm 3 mps 679 mmHg 22%
    03:00 +20°C° 0 mm 3 mps 679 mmHg 22%
    04:00 +19°C° 0 mm 3 mps 679 mmHg 23%
    05:00 +20°C° 0 mm 3 mps 679 mmHg 22%
    06:00 +20°C° 0 mm 3 mps 679 mmHg 21%
    07:00 +21°C° 0 mm 3 mps 680 mmHg 21%
    08:00 +23°C° 0 mm 4 mps 680 mmHg 18%
    09:00 +26°C° 0 mm 4 mps 681 mmHg 15%
    10:00 +28°C° 0 mm 4 mps 681 mmHg 12%
    11:00 +29°C° 0 mm 4 mps 681 mmHg 11%
    12:00 +30°C° 0 mm 5 mps 680 mmHg 10%
    13:00 +30°C° 0 mm 5 mps 680 mmHg 10%
    14:00 +30°C° 0 mm 5 mps 680 mmHg 10%
    15:00 +30°C° 0 mm 5 mps 680 mmHg 11%
    16:00 +29°C° 0 mm 5 mps 679 mmHg 11%
    17:00 +28°C° 0 mm 5 mps 679 mmHg 12%
    18:00 +27°C° 0 mm 5 mps 680 mmHg 13%
    19:00 +26°C° 0 mm 5 mps 680 mmHg 15%
    20:00 +25°C° 0 mm 5 mps 680 mmHg 16%
    21:00 +23°C° 0 mm 5 mps 680 mmHg 17%
    22:00 +22°C° 0 mm 5 mps 680 mmHg 18%
    23:00 +22°C° 0 mm 5 mps 680 mmHg 18%
    Show more